Date Time,Air Temp,Sky Temp,Clarity,Light Level,Rain Sensor,Readings
2010-05-01 00:00:06,16.9,5.5,11.4,0.0,2.4,111
2010-05-01 00:05:06,16.9,6.1,10.8,0.0,2.3,112
2010-05-01 00:10:06,16.9,5.8,11.1,0.0,2.3,111
2010-05-01 00:15:06,16.9,5.4,11.5,0.0,2.6,112
2010-05-01 00:20:06,17.0,5.9,11.1,0.0,2.8,111
2010-05-01 00:25:06,16.9,5.5,11.4,0.0,8.6,112
2010-05-01 00:30:06,17.1,9.5,7.6,0.0,16.1,111
2010-05-01 00:35:06,17.1,9.3,7.8,0.0,5.2,112
2010-05-01 00:40:06,16.9,7.9,8.9,0.0,2.5,111
2010-05-01 00:45:06,16.8,4.8,12.0,0.0,2.4,112
2010-05-01 00:50:06,16.8,5.1,11.8,0.0,2.4,111
2010-05-01 00:55:06,16.8,5.7,11.2,0.0,2.4,112
2010-05-01 01:00:06,16.9,5.7,11.2,0.0,2.4,112
2010-05-01 01:05:06,16.9,5.6,11.3,0.0,2.4,111
2010-05-01 01:10:06,16.9,5.8,11.1,0.0,2.4,111
2010-05-01 01:15:06,16.9,5.6,11.3,0.0,2.4,112
2010-05-01 01:20:06,16.9,5.6,11.2,0.0,2.4,111
2010-05-01 01:25:06,16.9,5.6,11.3,0.0,2.4,112
2010-05-01 01:30:06,16.9,5.6,11.3,0.0,2.4,111
2010-05-01 01:35:06,16.9,5.6,11.3,0.0,2.4,112
2010-05-01 01:40:06,16.9,5.4,11.4,0.0,2.4,112
2010-05-01 01:45:06,16.9,5.3,11.5,0.0,2.4,112
2010-05-01 01:50:06,16.9,5.7,11.1,0.0,2.5,111
2010-05-01 01:55:06,16.9,4.9,12.0,0.0,2.9,112
2010-05-01 02:00:06,16.9,5.0,11.9,0.0,7.2,111
2010-05-01 02:05:06,16.9,6.0,11.0,0.0,10.3,111
2010-05-01 02:10:06,17.0,9.2,7.8,0.0,20.7,112
2010-05-01 02:15:06,17.2,10.3,6.8,0.0,17.9,111
2010-05-01 02:20:06,16.8,10.6,6.3,0.0,24.8,111
2010-05-01 02:25:06,17.2,8.6,8.7,0.0,22.4,111
2010-05-01 02:30:06,17.2,8.7,8.4,0.0,18.2,112
2010-05-01 02:35:06,17.1,10.4,6.7,0.0,23.0,111
2010-05-01 02:40:06,17.2,10.3,6.9,0.0,20.6,111
2010-05-01 02:45:06,17.1,9.0,8.1,0.0,18.6,112
2010-05-01 02:50:06,16.9,10.4,6.5,0.0,12.5,111
2010-05-01 02:55:06,16.9,9.8,7.1,0.0,14.1,111
2010-05-01 03:00:06,16.8,10.3,6.5,0.0,5.8,112
2010-05-01 03:05:06,16.8,9.6,7.2,0.0,3.8,111
2010-05-01 03:10:06,16.7,8.8,7.9,0.0,3.6,112
2010-05-01 03:15:06,16.7,8.9,7.8,0.0,2.9,111
2010-05-01 03:20:06,16.7,9.6,7.1,0.0,3.2,112
2010-05-01 03:25:06,16.7,8.9,7.8,0.0,3.2,111
2010-05-01 03:30:06,16.7,5.7,11.0,0.0,4.3,112
2010-05-01 03:35:06,16.8,4.9,11.8,0.0,6.1,111
2010-05-01 03:40:06,16.8,9.7,7.1,0.0,15.4,111
2010-05-01 03:45:06,16.7,9.0,7.8,0.0,2.7,112
2010-05-01 03:50:06,16.7,5.1,11.5,0.0,2.3,111
2010-05-01 03:55:06,16.6,3.9,12.7,0.1,2.3,112
2010-05-01 04:00:06,16.6,4.4,12.2,0.0,2.3,112
2010-05-01 04:05:06,16.7,4.4,12.2,0.1,2.3,111
2010-05-01 04:10:06,16.7,5.0,11.7,0.0,2.3,112
2010-05-01 04:15:06,16.7,4.7,11.9,0.0,2.3,112
2010-05-01 04:20:06,16.7,3.6,13.1,0.1,2.4,111
2010-05-01 04:25:06,16.7,3.3,13.4,0.1,2.3,111
2010-05-01 04:30:06,16.7,4.3,12.3,0.1,2.3,112
2010-05-01 04:35:06,16.4,3.5,12.8,0.2,2.3,111
2010-05-01 04:40:06,16.6,3.6,13.0,0.3,2.3,112
2010-05-01 04:45:06,16.6,4.4,12.2,0.4,2.3,111
2010-05-01 04:50:06,16.6,4.4,12.3,0.7,2.3,112
2010-05-01 04:55:06,16.6,4.8,11.9,1.2,2.3,111
2010-05-01 05:00:06,16.6,5.1,11.5,2.1,2.3,112
2010-05-01 05:05:06,16.6,4.6,12.0,3.8,2.3,112
2010-05-01 05:10:06,16.6,3.5,13.2,7.8,2.3,111
2010-05-01 05:15:06,16.6,3.4,13.2,12.0,2.3,111
2010-05-01 05:20:06,16.6,3.4,13.2,17.2,2.3,112
2010-05-01 05:25:06,16.6,3.5,13.1,21.6,2.3,111
2010-05-01 05:30:06,16.6,2.0,14.6,26.0,2.3,111
2010-05-01 05:35:06,16.6,1.2,15.3,27.9,2.3,112
2010-05-01 05:40:06,16.6,1.7,14.9,29.2,2.3,111
2010-05-01 05:45:06,16.5,3.1,13.4,29.9,2.3,111
2010-05-01 05:50:06,16.6,2.0,14.5,30.6,2.3,111
2010-05-01 05:55:06,16.6,2.0,14.6,31.0,2.3,111
2010-05-01 06:00:06,16.6,0.4,16.1,31.5,2.3,112
2010-05-01 06:05:06,16.6,3.0,13.6,31.6,2.3,111
2010-05-01 06:10:06,16.6,3.0,13.6,31.7,2.3,112
2010-05-01 06:15:06,16.6,2.6,14.0,31.9,2.3,111
2010-05-01 06:20:06,16.6,1.1,15.6,32.0,2.3,111
2010-05-01 06:25:06,16.6,-0.6,17.2,32.1,2.3,111
2010-05-01 06:30:06,17.2,-3.4,20.6,32.1,2.3,112
2010-05-01 06:35:06,19.6,-1.3,20.9,32.1,2.3,112
2010-05-01 06:40:06,20.3,-7.2,27.5,32.1,2.2,111
2010-05-01 06:45:06,20.8,-5.2,26.1,32.1,2.3,112
2010-05-01 06:50:06,21.0,-6.8,27.8,32.2,2.3,112
2010-05-01 06:55:06,21.0,-4.9,25.9,32.2,2.3,111
2010-05-01 07:00:06,19.5,-1.5,20.9,32.3,2.2,112
2010-05-01 07:05:06,20.5,-2.7,23.3,32.4,2.3,112
2010-05-01 07:10:06,21.2,-10.7,31.9,32.4,2.3,111
2010-05-01 07:15:06,21.6,-11.8,33.4,32.4,2.3,112
2010-05-01 07:20:06,21.9,-3.5,25.5,32.4,2.3,111
2010-05-01 07:25:06,22.1,-2.7,24.8,32.4,2.3,112
2010-05-01 07:30:06,22.3,-4.5,26.9,32.5,2.3,111
2010-05-01 07:35:06,22.5,-6.5,29.0,32.4,2.2,112
2010-05-01 07:40:06,22.6,-7.5,30.2,32.5,2.3,112
2010-05-01 07:45:06,22.7,-10.6,33.3,32.4,2.3,111
2010-05-01 07:50:06,22.7,-7.8,30.4,32.4,2.3,112
2010-05-01 07:55:06,22.8,-0.3,23.1,32.5,2.3,111
2010-05-01 08:00:06,22.9,0.6,22.3,32.5,2.3,111
2010-05-01 08:05:06,23.0,0.5,22.5,32.5,2.4,112
2010-05-01 08:10:06,23.1,1.3,21.8,32.5,2.4,111
2010-05-01 08:15:06,22.1,2.2,20.0,32.5,2.3,111
2010-05-01 08:20:06,19.9,2.6,17.3,32.5,2.3,112
2010-05-01 08:25:06,19.0,-0.1,19.2,32.5,2.3,111
2010-05-01 08:30:06,21.3,-2.1,23.4,32.5,2.3,112
2010-05-01 08:35:06,22.8,0.5,22.3,32.6,2.3,111
2010-05-01 08:40:06,21.9,3.5,18.4,32.5,2.4,111
2010-05-01 08:45:06,22.5,2.1,20.4,32.6,2.3,112
2010-05-01 08:50:06,20.9,3.3,17.6,32.5,2.3,111
2010-05-01 08:55:06,20.1,1.1,19.0,32.5,2.2,111
2010-05-01 09:00:06,19.5,3.9,15.6,32.5,2.3,112
2010-05-01 09:05:06,19.2,3.0,16.2,32.5,2.3,111
2010-05-01 09:10:06,19.2,4.2,15.0,32.5,2.3,112
2010-05-01 09:15:06,20.1,-3.9,24.0,32.5,2.3,112
2010-05-01 09:20:06,21.8,0.8,21.0,32.5,2.2,111
2010-05-01 09:25:06,23.4,-0.9,24.3,32.5,2.3,112
2010-05-01 09:30:06,24.2,-4.2,28.4,32.5,2.3,112
2010-05-01 09:35:06,24.8,-0.5,25.2,32.6,2.3,111
2010-05-01 09:40:06,25.4,-3.3,28.6,32.5,2.3,112
2010-05-01 09:45:06,25.3,-1.6,26.9,32.6,2.3,111
2010-05-01 09:50:06,25.4,-5.6,31.0,32.5,2.3,112
2010-05-01 09:55:06,25.2,-9.7,34.8,32.5,2.3,111
2010-05-01 10:00:06,25.9,-4.6,30.5,32.6,2.3,112
2010-05-01 10:05:06,26.8,-4.2,30.9,32.6,2.3,112
2010-05-01 10:10:06,26.4,-5.4,31.8,32.6,2.3,111
2010-05-01 10:15:06,26.8,-1.8,28.6,32.6,2.3,112
2010-05-01 10:20:06,26.2,-0.6,26.7,32.5,2.3,112
2010-05-01 10:25:06,25.5,-1.6,27.0,32.5,2.3,111
2010-05-01 10:30:06,25.0,-11.0,36.1,32.5,2.3,112
2010-05-01 10:35:06,25.6,-8.5,34.1,32.6,2.3,112
2010-05-01 10:40:06,27.3,-4.7,32.0,32.6,2.3,111
2010-05-01 10:45:06,28.5,-2.7,31.2,32.6,2.1,112
2010-05-01 10:50:06,28.3,-1.5,29.8,32.6,2.0,111
2010-05-01 10:55:06,27.4,-5.9,33.3,32.5,2.3,112
2010-05-01 11:00:06,26.7,-3.5,30.2,32.6,2.3,112
2010-05-01 11:05:06,27.7,-0.7,28.4,32.6,2.3,111
2010-05-01 11:10:06,28.1,3.4,24.7,32.6,2.3,111
2010-05-01 11:15:06,27.8,4.2,23.5,32.5,2.3,112
2010-05-01 11:20:06,27.0,3.1,23.9,32.5,2.3,111
2010-05-01 11:25:06,26.1,2.4,23.7,32.5,2.6,111
2010-05-01 11:30:06,25.6,3.6,22.0,32.5,2.3,112
2010-05-01 11:35:06,25.5,2.4,23.1,32.6,2.4,111
2010-05-01 11:40:06,25.5,2.4,23.1,32.5,2.3,112
2010-05-01 11:45:06,25.6,3.7,21.9,32.5,2.3,111
2010-05-01 11:50:06,25.6,4.2,21.3,32.5,2.5,111
2010-05-01 11:55:06,25.6,1.2,24.4,32.6,2.4,112
2010-05-01 12:00:06,25.9,-1.4,27.3,32.6,3.0,111
2010-05-01 12:05:06,26.1,-0.6,26.7,32.6,2.3,112
2010-05-01 12:10:06,26.6,-0.8,27.4,32.6,2.3,112
2010-05-01 12:15:06,27.0,0.3,26.7,32.6,2.3,111
2010-05-01 12:20:06,27.7,3.8,23.9,32.6,1.7,112
2010-05-01 12:25:06,27.6,4.0,23.6,32.6,1.5,111
2010-05-01 12:30:06,27.2,4.3,22.9,32.6,1.7,112
2010-05-01 12:35:06,26.7,3.4,23.3,32.6,2.3,111
2010-05-01 12:40:06,26.1,2.6,23.5,32.5,2.7,111
2010-05-01 12:45:06,25.6,2.5,23.1,32.5,7.3,111
2010-05-01 12:50:06,25.0,1.3,23.7,32.6,13.0,111
2010-05-01 12:55:06,24.0,3.2,20.8,32.6,9.8,112
2010-05-01 13:00:06,23.8,2.1,21.7,32.6,4.5,111
2010-05-01 13:05:06,22.4,4.0,18.4,32.6,3.0,111
2010-05-01 13:10:06,20.4,3.2,17.2,32.6,2.4,111
2010-05-01 13:15:06,20.1,3.2,16.9,32.6,2.4,111
2010-05-01 13:20:06,20.2,3.0,17.2,32.6,2.3,111
2010-05-01 13:25:06,20.3,2.9,17.4,32.6,2.3,111
2010-05-01 13:30:06,20.3,2.8,17.5,32.6,2.3,112
2010-05-01 13:35:06,20.3,2.5,17.8,32.6,2.3,111
2010-05-01 13:40:06,20.2,2.4,17.7,32.5,2.3,111
2010-05-01 13:45:06,20.1,2.5,17.5,32.5,2.3,111
2010-05-01 13:50:06,20.1,2.6,17.5,32.5,2.4,112
2010-05-01 13:55:06,20.1,2.6,17.5,32.6,2.5,111
2010-05-01 14:00:06,20.1,4.7,15.4,32.6,2.5,111
2010-05-01 14:05:06,20.4,4.8,15.7,32.5,2.3,112
2010-05-01 14:10:06,20.6,2.9,17.7,32.6,2.3,111
2010-05-01 14:15:06,20.6,3.4,17.2,32.6,2.3,111
2010-05-01 14:20:06,20.7,2.6,18.1,32.6,2.3,111
2010-05-01 14:25:06,20.7,2.4,18.3,32.6,2.3,111
2010-05-01 14:30:06,20.6,3.2,17.4,32.6,2.3,112
2010-05-01 14:35:06,20.8,3.1,17.7,32.6,2.3,111
2010-05-01 14:40:06,21.1,3.0,18.1,32.6,2.3,111
2010-05-01 14:45:06,21.4,2.9,18.6,32.6,2.3,111
2010-05-01 14:50:06,21.3,2.6,18.7,32.6,2.3,111
2010-05-01 14:55:06,21.2,2.7,18.5,32.6,2.3,112
2010-05-01 15:00:06,21.1,2.7,18.4,32.6,2.3,111
2010-05-01 15:05:06,20.9,2.8,18.0,32.6,2.3,111
2010-05-01 15:10:06,20.8,3.0,17.8,32.6,2.3,111
2010-05-01 15:15:06,20.7,2.5,18.2,32.5,2.3,111
2010-05-01 15:20:06,20.4,2.6,17.8,32.5,2.3,112
2010-05-01 15:25:06,20.2,2.3,17.9,32.5,2.3,111
2010-05-01 15:30:06,19.9,2.0,17.9,32.5,2.3,111
2010-05-01 15:35:06,19.7,2.3,17.4,32.5,2.3,111
2010-05-01 15:40:06,19.5,2.3,17.2,32.5,2.3,111
2010-05-01 15:45:06,19.5,2.5,17.0,32.5,2.2,111
2010-05-01 15:50:06,19.4,2.6,16.8,32.5,2.1,111
2010-05-01 15:55:06,19.4,2.2,17.1,32.5,2.0,111
2010-05-01 16:00:06,19.4,1.7,17.7,32.6,2.1,112
2010-05-01 16:05:06,19.4,1.9,17.5,32.5,2.2,111
2010-05-01 16:10:06,19.3,2.0,17.3,32.5,2.1,111
2010-05-01 16:15:06,19.3,1.9,17.3,32.5,2.1,111
2010-05-01 16:20:06,19.2,2.0,17.2,32.5,2.2,111
2010-05-01 16:25:06,19.4,2.2,17.2,32.5,2.3,111
2010-05-01 16:30:06,19.1,2.2,16.9,32.5,2.3,111
2010-05-01 16:35:06,19.1,1.8,17.2,32.5,2.3,111
2010-05-01 16:40:06,19.1,2.1,16.9,32.5,2.3,111
2010-05-01 16:45:06,19.1,2.1,17.0,32.5,2.3,111
2010-05-01 16:50:06,19.2,2.6,16.6,32.5,2.3,111
2010-05-01 16:55:06,19.4,2.6,16.8,32.5,2.2,112
2010-05-01 17:00:06,19.6,2.3,17.3,32.5,2.1,111
2010-05-01 17:05:06,19.9,1.4,18.5,32.5,2.3,110
2010-05-01 17:10:06,21.4,-0.5,21.9,32.5,2.3,112
2010-05-01 17:15:06,24.1,-2.7,26.8,32.6,2.3,112
2010-05-01 17:20:06,24.9,-4.3,29.3,32.6,2.3,111
2010-05-01 17:25:06,25.3,-2.6,27.9,32.5,2.3,112
2010-05-01 17:30:06,25.3,-3.0,28.4,32.5,2.3,112
2010-05-01 17:35:06,25.4,-5.2,30.6,32.5,2.3,112
2010-05-01 17:40:06,25.2,-6.4,31.6,32.5,2.3,111
2010-05-01 17:45:06,25.0,-5.3,30.2,32.5,2.3,112
2010-05-01 17:50:06,24.7,-2.4,27.1,32.5,2.3,111
2010-05-01 17:55:06,24.4,-1.6,26.0,32.5,2.3,112
2010-05-01 18:00:06,24.5,-1.0,25.5,32.6,2.3,112
2010-05-01 18:05:06,24.7,-1.8,26.5,32.6,2.3,111
2010-05-01 18:10:06,25.0,-1.4,26.4,32.6,2.3,112
2010-05-01 18:15:06,25.3,-0.3,25.7,32.5,2.3,112
2010-05-01 18:20:06,25.3,-0.4,25.7,32.5,2.3,112
2010-05-01 18:25:06,25.0,-0.8,25.8,32.5,2.3,111
2010-05-01 18:30:06,24.6,-1.0,25.6,32.5,2.3,112
2010-05-01 18:35:06,24.3,0.6,23.7,32.4,2.3,111
2010-05-01 18:40:06,24.1,-0.7,24.7,32.4,2.3,112
2010-05-01 18:45:06,23.9,-0.8,24.7,32.4,2.3,112
2010-05-01 18:50:06,23.3,-1.1,24.4,32.4,2.3,112
2010-05-01 18:55:06,23.6,-3.2,26.8,32.5,2.3,111
2010-05-01 19:00:06,23.7,-4.9,28.6,32.4,2.3,112
2010-05-01 19:05:06,23.5,-4.6,28.1,32.4,2.3,112
2010-05-01 19:10:06,22.7,-3.9,26.6,32.4,2.3,112
2010-05-01 19:15:06,23.7,0.5,23.2,32.4,2.3,111
2010-05-01 19:20:06,23.6,1.7,21.9,32.4,2.3,111
2010-05-01 19:25:06,22.9,-2.8,25.7,32.4,2.3,112
2010-05-01 19:30:06,23.6,-4.7,28.3,32.4,2.3,112
2010-05-01 19:35:06,23.7,-9.9,33.6,32.4,2.3,111
2010-05-01 19:40:06,23.6,-10.8,34.4,32.3,2.3,112
2010-05-01 19:45:06,23.4,-11.1,34.5,32.2,2.3,112
2010-05-01 19:50:06,23.2,-10.4,33.6,32.2,2.3,112
2010-05-01 19:55:06,23.0,-9.3,32.4,32.1,2.3,111
2010-05-01 20:00:06,22.9,-8.5,31.4,32.0,2.3,112
2010-05-01 20:05:06,22.8,-6.7,29.4,32.0,2.3,112
2010-05-01 20:10:06,22.7,-0.7,23.4,31.9,2.4,111
2010-05-01 20:15:06,22.5,0.7,21.7,31.7,2.4,112
2010-05-01 20:20:06,22.7,-1.3,24.0,31.3,2.4,111
2010-05-01 20:25:06,22.6,-12.0,34.6,31.0,2.4,112
2010-05-01 20:30:06,22.4,-12.0,34.4,30.3,2.3,111
2010-05-01 20:35:06,22.2,-7.5,29.7,29.0,2.3,111
2010-05-01 20:40:06,22.1,-4.2,26.3,26.5,2.3,112
2010-05-01 20:45:06,20.5,3.5,17.0,21.6,2.2,112
2010-05-01 20:50:06,18.3,5.2,13.1,16.2,2.3,111
2010-05-01 20:55:06,17.7,5.2,12.5,10.9,2.3,112
2010-05-01 21:00:06,17.5,5.5,12.0,6.4,2.2,112
2010-05-01 21:05:06,17.7,-0.0,17.7,5.2,2.2,111
2010-05-01 21:10:06,20.4,-2.8,23.1,3.7,2.3,112
2010-05-01 21:15:06,21.4,-3.1,24.5,2.3,2.3,111
2010-05-01 21:20:06,21.7,-8.0,29.7,1.5,2.3,112
2010-05-01 21:25:06,21.8,-8.5,30.3,0.9,2.3,111
2010-05-01 21:30:06,21.8,-7.5,29.4,0.5,2.3,112
2010-05-01 21:35:06,21.8,-8.0,29.8,0.3,2.3,111
2010-05-01 21:40:06,21.8,-8.0,29.7,0.2,2.3,112
2010-05-01 21:45:06,21.7,-8.2,29.9,0.2,2.3,111
2010-05-01 21:50:06,21.6,-6.6,28.2,0.1,2.3,112
2010-05-01 21:55:06,21.5,-5.8,27.3,0.1,2.3,111
2010-05-01 22:00:06,21.6,-4.8,26.4,0.1,2.3,112
2010-05-01 22:05:06,21.7,-3.5,25.2,0.1,2.3,112
2010-05-01 22:10:06,21.9,-3.6,25.5,0.0,2.3,112
2010-05-01 22:15:06,22.2,-3.1,25.2,0.0,2.3,112
2010-05-01 22:20:06,22.4,-1.4,23.8,0.0,2.3,111
2010-05-01 22:25:06,22.6,-2.2,24.8,0.0,2.3,111
2010-05-01 22:30:06,22.8,-3.1,25.9,0.0,2.3,111
2010-05-01 22:35:06,22.7,-2.2,24.9,0.0,2.2,112
2010-05-01 22:40:06,22.4,-1.7,24.1,0.1,2.2,112
2010-05-01 22:45:06,22.1,-3.3,25.4,0.1,2.3,112
2010-05-01 22:50:06,21.9,-1.6,23.5,0.1,2.3,111
2010-05-01 22:55:06,21.9,-1.3,23.2,0.1,2.3,111
2010-05-01 23:00:06,22.0,-1.2,23.1,0.1,2.3,112
2010-05-01 23:05:06,22.0,0.2,21.7,0.0,2.3,112
2010-05-01 23:10:06,19.4,2.7,16.7,0.0,2.3,111
2010-05-01 23:15:06,18.1,4.5,13.6,0.0,2.3,112
2010-05-01 23:20:06,17.7,5.2,12.5,0.0,2.3,111
2010-05-01 23:25:06,17.5,3.3,14.2,0.0,2.3,112
2010-05-01 23:30:06,17.3,3.9,13.5,0.0,2.3,111
2010-05-01 23:35:06,17.2,5.2,11.9,0.0,2.4,112
2010-05-01 23:40:06,17.1,6.2,10.9,0.0,2.5,111
2010-05-01 23:45:06,17.2,6.0,11.2,0.0,2.4,112
2010-05-01 23:50:06,17.3,6.0,11.3,0.0,2.3,112
2010-05-01 23:55:06,17.4,5.5,11.9,0.0,2.3,111
